When you browse on this site, cookies collect data to enhance your experience and personalize the content and advertising you see.
Visit our Privacy Policy to learn more. By continuing to use the site, you agree to this use of cookies and data.
  • In Latvia
  • List of Countries
  • For 7 days
  • Water Temperature
  • Satellite Maps
  • Weather Map
  • Weather Widgets
  • user-avatar
    Login

    Hourly Weather Graz

    Today, 24 June, Monday

    Time Temperature Precipitation Wind Pressure Humidity
    00:00 +19°C° 0 mm 1 mps 727 mmHg 88%
    01:00 +18°C° 0 mm 2 mps 727 mmHg 88%
    02:00 +18°C° 0.1 mm 2 mps 727 mmHg 88%
    03:00 +18°C° 0.1 mm 2 mps 727 mmHg 88%
    04:00 +19°C° 0.1 mm 1 mps 727 mmHg 88%
    05:00 +20°C° 0 mm 1 mps 727 mmHg 85%
    06:00 +21°C° 0 mm 1 mps 727 mmHg 82%
    07:00 +22°C° 0 mm 1 mps 728 mmHg 79%
    08:00 +24°C° 0 mm 1 mps 728 mmHg 70%
    09:00 +26°C° 0 mm 1 mps 728 mmHg 61%
    10:00 +29°C° 0 mm 1 mps 728 mmHg 52%
    11:00 +29°C° 0.1 mm 1 mps 728 mmHg 52%
    12:00 +29°C° 0.1 mm 2 mps 728 mmHg 53%
    13:00 +29°C° 0.1 mm 2 mps 728 mmHg 53%
    14:00 +28°C° 0.6 mm 2 mps 728 mmHg 59%
    15:00 +28°C° 0.6 mm 2 mps 728 mmHg 64%
    16:00 +27°C° 0.6 mm 1 mps 728 mmHg 70%
    17:00 +26°C° 0.5 mm 1 mps 728 mmHg 74%
    18:00 +25°C° 0.5 mm 1 mps 728 mmHg 79%
    19:00 +24°C° 0.5 mm 1 mps 728 mmHg 83%
    20:00 +23°C° 0 mm 1 mps 728 mmHg 85%
    21:00 +22°C° 0 mm 1 mps 729 mmHg 87%
    22:00 +19°C° 0 mm 0 mps 729 mmHg 88%
    23:00 +21°C° 0 mm 1 mps 729 mmHg 89%

    Tomorrow, 25 June, Tuesday

    Time Temperature Precipitation Wind Pressure Humidity
    00:00 +20°C° 0 mm 1 mps 729 mmHg 89%
    01:00 +20°C° 0 mm 1 mps 729 mmHg 89%
    02:00 +20°C° 0 mm 1 mps 729 mmHg 90%
    03:00 +18°C° 0 mm 0 mps 729 mmHg 90%
    04:00 +17°C° 0 mm 0 mps 729 mmHg 91%
    05:00 +19°C° 0 mm 0 mps 729 mmHg 88%
    06:00 +20°C° 0 mm 0 mps 729 mmHg 85%
    07:00 +22°C° 0 mm 0 mps 730 mmHg 82%
    08:00 +24°C° 0 mm 0 mps 730 mmHg 74%
    09:00 +27°C° 0 mm 1 mps 730 mmHg 65%
    10:00 +29°C° 0 mm 1 mps 730 mmHg 56%
    11:00 +30°C° 0 mm 1 mps 730 mmHg 55%
    12:00 +30°C° 0 mm 1 mps 730 mmHg 52%
    13:00 +31°C° 0 mm 2 mps 730 mmHg 49%
    14:00 +31°C° 0 mm 2 mps 730 mmHg 49%
    15:00 +31°C° 0 mm 2 mps 730 mmHg 49%
    16:00 +31°C° 0 mm 2 mps 730 mmHg 50%
    17:00 +29°C° 0 mm 2 mps 730 mmHg 59%
    18:00 +28°C° 0 mm 1 mps 730 mmHg 67%
    19:00 +26°C° 0 mm 1 mps 730 mmHg 76%
    20:00 +25°C° 0 mm 1 mps 730 mmHg 80%
    21:00 +22°C° 0 mm 0 mps 731 mmHg 84%
    22:00 +20°C° 0 mm 0 mps 731 mmHg 89%
    23:00 +20°C° 0 mm 0 mps 731 mmHg 89%

    Day after tomorrow, 26 June, Wednesday

    Time Temperature Precipitation Wind Pressure Humidity
    00:00 +20°C° 0 mm 0 mps 731 mmHg 89%
    01:00 +21°C° 0 mm 1 mps 731 mmHg 90%
    02:00 +21°C° 0 mm 1 mps 730 mmHg 90%
    03:00 +21°C° 0 mm 1 mps 730 mmHg 90%
    04:00 +21°C° 0 mm 1 mps 730 mmHg 91%
    05:00 +20°C° 0 mm 0 mps 730 mmHg 85%
    06:00 +22°C° 0 mm 0 mps 731 mmHg 80%
    07:00 +24°C° 0 mm 0 mps 731 mmHg 74%
    08:00 +26°C° 0 mm 0 mps 731 mmHg 66%
    09:00 +29°C° 0 mm 1 mps 731 mmHg 58%
    10:00 +31°C° 0 mm 1 mps 731 mmHg 50%
    11:00 +32°C° 0 mm 1 mps 731 mmHg 47%
    12:00 +33°C° 0 mm 1 mps 731 mmHg 44%
    13:00 +35°C° 0 mm 2 mps 730 mmHg 40%
    14:00 +35°C° 0 mm 2 mps 730 mmHg 40%
    15:00 +35°C° 0 mm 2 mps 730 mmHg 41%
    16:00 +34°C° 0 mm 2 mps 730 mmHg 41%
    17:00 +32°C° 0 mm 1 mps 729 mmHg 51%
    18:00 +30°C° 0 mm 1 mps 729 mmHg 61%
    19:00 +28°C° 0 mm 1 mps 729 mmHg 71%
    20:00 +27°C° 0 mm 1 mps 729 mmHg 74%
    21:00 +25°C° 0 mm 1 mps 729 mmHg 78%
    22:00 +22°C° 0 mm 0 mps 729 mmHg 82%
    23:00 +24°C° 0 mm 1 mps 729 mmHg 82%

    27 June, Thursday

    Time Temperature Precipitation Wind Pressure Humidity
    00:00 +23°C° 0 mm 1 mps 729 mmHg 82%
    01:00 +23°C° 0 mm 1 mps 729 mmHg 82%
    02:00 +23°C° 0 mm 1 mps 729 mmHg 82%
    03:00 +22°C° 0 mm 1 mps 728 mmHg 83%
    04:00 +22°C° 0 mm 1 mps 728 mmHg 83%
    05:00 +24°C° 0 mm 1 mps 728 mmHg 78%
    06:00 +25°C° 0 mm 1 mps 728 mmHg 72%
    07:00 +27°C° 0 mm 1 mps 728 mmHg 67%
    08:00 +30°C° 0 mm 1 mps 728 mmHg 58%
    09:00 +32°C° 0 mm 1 mps 728 mmHg 50%
    10:00 +34°C° 0 mm 1 mps 728 mmHg 42%
    11:00 +35°C° 0 mm 1 mps 728 mmHg 39%
    12:00 +37°C° 0 mm 2 mps 728 mmHg 35%
    13:00 +38°C° 0 mm 2 mps 727 mmHg 32%
    14:00 +38°C° 0 mm 2 mps 727 mmHg 32%
    15:00 +37°C° 0 mm 3 mps 727 mmHg 33%
    16:00 +37°C° 0 mm 3 mps 726 mmHg 33%
    17:00 +35°C° 0 mm 2 mps 726 mmHg 44%
    18:00 +32°C° 0 mm 2 mps 726 mmHg 55%
    19:00 +30°C° 0 mm 1 mps 726 mmHg 65%
    20:00 +28°C° 1.2 mm 1 mps 726 mmHg 74%
    21:00 +26°C° 1.2 mm 1 mps 726 mmHg 82%
    22:00 +24°C° 1.2 mm 1 mps 726 mmHg 91%
    23:00 +23°C° 0.1 mm 1 mps 726 mmHg 91%

    28 June, Friday

    Time Temperature Precipitation Wind Pressure Humidity
    00:00 +22°C° 0.1 mm 1 mps 727 mmHg 92%
    01:00 +22°C° 0.1 mm 1 mps 727 mmHg 92%
    02:00 +21°C° 0 mm 1 mps 727 mmHg 92%
    03:00 +21°C° 0 mm 1 mps 727 mmHg 92%
    04:00 +21°C° 0 mm 1 mps 727 mmHg 92%
    05:00 +21°C° 0 mm 1 mps 727 mmHg 89%
    06:00 +22°C° 0 mm 1 mps 727 mmHg 86%
    07:00 +23°C° 0 mm 1 mps 727 mmHg 83%
    08:00 +25°C° 0 mm 1 mps 727 mmHg 74%
    09:00 +27°C° 0 mm 1 mps 727 mmHg 65%
    10:00 +29°C° 0 mm 1 mps 727 mmHg 55%
    11:00 +30°C° 0 mm 1 mps 727 mmHg 48%
    12:00 +31°C° 0 mm 1 mps 727 mmHg 41%
    13:00 +32°C° 0 mm 2 mps 727 mmHg 34%
    14:00 +32°C° 0 mm 2 mps 726 mmHg 34%
    15:00 +32°C° 0 mm 2 mps 726 mmHg 33%
    16:00 +33°C° 0 mm 3 mps 726 mmHg 33%
    17:00 +29°C° 0 mm 2 mps 726 mmHg 45%
    18:00 +27°C° 0 mm 2 mps 726 mmHg 56%
    19:00 +25°C° 0 mm 1 mps 726 mmHg 68%
    20:00 +24°C° 0 mm 1 mps 726 mmHg 71%
    21:00 +22°C° 0 mm 1 mps 727 mmHg 74%
    22:00 +21°C° 0 mm 1 mps 727 mmHg 77%
    23:00 +20°C° 0 mm 1 mps 727 mmHg 78%

    29 June, Saturday

    Time Temperature Precipitation Wind Pressure Humidity
    00:00 +19°C° 0 mm 1 mps 727 mmHg 78%
    01:00 +19°C° 0 mm 1 mps 727 mmHg 79%
    02:00 +18°C° 0 mm 1 mps 727 mmHg 79%
    03:00 +18°C° 0 mm 1 mps 727 mmHg 79%
    04:00 +18°C° 0 mm 1 mps 726 mmHg 79%
    05:00 +19°C° 0 mm 1 mps 727 mmHg 74%
    06:00 +19°C° 0 mm 0 mps 727 mmHg 68%
    07:00 +21°C° 0 mm 0 mps 727 mmHg 63%
    08:00 +23°C° 0 mm 0 mps 727 mmHg 57%
    09:00 +27°C° 0 mm 1 mps 727 mmHg 52%
    10:00 +29°C° 0 mm 1 mps 727 mmHg 46%
    11:00 +30°C° 0 mm 1 mps 727 mmHg 43%
    12:00 +30°C° 0 mm 1 mps 727 mmHg 41%
    13:00 +31°C° 0 mm 1 mps 726 mmHg 38%
    14:00 +31°C° 0 mm 2 mps 726 mmHg 39%
    15:00 +31°C° 0 mm 2 mps 726 mmHg 41%
    16:00 +31°C° 0 mm 2 mps 726 mmHg 43%
    17:00 +29°C° 0 mm 2 mps 726 mmHg 53%
    18:00 +27°C° 0 mm 1 mps 726 mmHg 63%
    19:00 +25°C° 0 mm 1 mps 726 mmHg 73%
    20:00 +24°C° 0 mm 1 mps 726 mmHg 77%
    21:00 +23°C° 0 mm 1 mps 726 mmHg 80%
    22:00 +19°C° 0 mm 0 mps 726 mmHg 84%
    23:00 +19°C° 0 mm 0 mps 726 mmHg 84%
    Show more